Appleton, MN

2:03 PM CDT on May 29, 2017 (GMT -0500)
Appleton Municipal

Weather History for KAQP - May, 2012

Change the Weather History Date:

Wednesday, May 23, 2012

  Actual Average Record
Temperature  
Mean Temperature 67 °F -  
Max Temperature 75 °F 67 °F 87 °F (2006)
Min Temperature 57 °F 45 °F 39 °F (2001)
Cooling Degree Days 2    
Growing Degree Days 17 (Base 50)    
Moisture  
Dew Point 56 °F    
Average Humidity 75    
Maximum Humidity 100    
Minimum Humidity 31    
Precipitation  
Precipitation 0.77 in - - ()
Sea Level Pressure  
Sea Level Pressure 29.49 in    
Wind  
Wind Speed 12 mph (South)    
Max Wind Speed 28 mph    
Max Gust Speed 37 mph    
Visibility 10 miles    
Events Rain , Thunderstorm    
Averages and records for this station are not official NWS values.
T = Trace of Precipitation, MM = Missing Value Source: NWS Daily Summary

Daily Weather History Graph

Daily Weather History Graph

Search for Another Location

Airport or City:

Trip Planner

Search our weather history database for the weather conditions in past years. The results will help you decide how hot, cold, wet, or windy it might be!

Date:

Astronomy

May. 23, 2012 Rise Set
Actual Time 5:45 AM CDT 8:56 PM CDT
Civil Twilight 5:10 AM CDT 9:32 PM CDT
Nautical Twilight 4:24 AM CDT 10:18 PM CDT
Astronomical Twilight 3:28 AM CDT 11:15 PM CDT
Moon 7:49 AM CDT (5/23) 11:17 PM CDT (5/23)
Length of Visible Light 16h 21m
Length of Day
15h 10m
Waxing Crescent, 7% of the Moon is Illuminated
May 23
Waxing Crescent
May 28
First Quarter
Jun 4
Full
Jun 11
Last Quarter
Jun 19
New

Hourly Weather History & Observations

Time (CDT) Temp. Dew Point Humidity Pressure Visibility Wind Dir Wind Speed Gust Speed Precip Events Conditions
12:15 AM 75.2 °F 42.8 °F 31% 29.44 in 10.0 mi South 27.6 mph 36.8 mph N/A   Clear
12:35 AM 75.2 °F 42.8 °F 31% 29.43 in 10.0 mi South 21.9 mph 33.4 mph N/A   Clear
12:54 AM 75.2 °F 42.8 °F 31% 29.43 in 10.0 mi South 23.0 mph 33.4 mph N/A   Clear
1:14 AM 75.2 °F 42.8 °F 31% 29.44 in 10.0 mi South 20.7 mph 33.4 mph N/A   Clear
1:35 AM 75.2 °F 42.8 °F 31% 29.46 in 10.0 mi South 20.7 mph 29.9 mph N/A   Clear
1:54 AM 73.4 °F 42.8 °F 33% 29.46 in 10.0 mi South 18.4 mph 28.8 mph N/A   Clear
2:14 AM 73.4 °F 44.6 °F 36% 29.47 in 10.0 mi South 13.8 mph 25.3 mph N/A   Clear
2:34 AM 73.4 °F 46.4 °F 38% 29.51 in 10.0 mi SW 9.2 mph - N/A Rain , Thunderstorm Light Thunderstorms and Rain
2:54 AM 71.6 °F 48.2 °F 43% 29.52 in 10.0 mi SSW 9.2 mph - N/A Rain Light Rain
3:14 AM 71.6 °F 48.2 °F 43% 29.52 in 10.0 mi South 4.6 mph - N/A Rain Light Rain
3:35 AM 69.8 °F 51.8 °F 53% 29.52 in 10.0 mi SE 3.5 mph - N/A Rain Light Rain
3:55 AM 66.2 °F 53.6 °F 64% 29.54 in 10.0 mi East 3.5 mph - N/A Rain Light Rain
4:14 AM 64.4 °F 55.4 °F 73% 29.55 in 10.0 mi East 5.8 mph - N/A Rain Light Rain
5:14 AM 62.6 °F 57.2 °F 82% 29.56 in 10.0 mi ENE 4.6 mph - 0.02 in Rain Rain
5:34 AM 60.8 °F 57.2 °F 88% 29.56 in 10.0 mi NNE 3.5 mph - 0.06 in Rain Heavy Rain
5:54 AM 60.8 °F 57.2 °F 88% 29.52 in 10.0 mi ESE 9.2 mph - 0.08 in Rain Rain
6:15 AM 60.8 °F 55.4 °F 82% 29.53 in 10.0 mi SE 8.1 mph - 0.01 in Rain Light Rain
6:34 AM 60.8 °F 55.4 °F 82% 29.52 in 10.0 mi SE 11.5 mph - 0.01 in Rain Light Rain
6:55 AM 62.6 °F 53.6 °F 72% 29.49 in 10.0 mi SE 17.3 mph 26.5 mph 0.02 in   Mostly Cloudy
7:14 AM 62.6 °F 53.6 °F 72% 29.50 in 10.0 mi SE 12.7 mph 19.6 mph N/A   Scattered Clouds
7:34 AM 62.6 °F 53.6 °F 72% 29.50 in 10.0 mi SE 11.5 mph - N/A   Scattered Clouds
7:54 AM 62.6 °F 53.6 °F 72% 29.50 in 10.0 mi SSE 8.1 mph 16.1 mph N/A   Clear
8:15 AM 62.6 °F 53.6 °F 72% 29.51 in 10.0 mi SSE 9.2 mph - N/A   Clear
8:34 AM 64.4 °F 53.6 °F 68% 29.48 in 10.0 mi SSE 15.0 mph 20.7 mph N/A   Clear
8:54 AM 64.4 °F 53.6 °F 68% 29.51 in 10.0 mi South 9.2 mph 19.6 mph N/A   Clear
9:15 AM 64.4 °F 53.6 °F 68% 29.51 in 10.0 mi South 12.7 mph 19.6 mph N/A   Clear
9:34 AM 66.2 °F 55.4 °F 68% 29.49 in 10.0 mi SSE 13.8 mph 24.2 mph N/A   Clear
9:54 AM 66.2 °F 55.4 °F 68% 29.47 in 10.0 mi South 13.8 mph 21.9 mph N/A   Clear
10:14 AM 66.2 °F 53.6 °F 64% 29.47 in 10.0 mi South 12.7 mph 21.9 mph N/A   Clear
10:35 AM 64.4 °F 53.6 °F 68% 29.50 in 10.0 mi South 11.5 mph 19.6 mph N/A Rain Light Rain
10:55 AM 62.6 °F 55.4 °F 77% 29.48 in 10.0 mi SSE 9.2 mph - N/A Rain Light Rain
11:15 AM 64.4 °F 55.4 °F 73% 29.48 in 10.0 mi SSE 10.4 mph 18.4 mph N/A Rain Light Rain
11:35 AM 64.4 °F 55.4 °F 73% 29.49 in 10.0 mi South 11.5 mph 16.1 mph N/A   Scattered Clouds
11:55 AM 66.2 °F 55.4 °F 68% 29.49 in 10.0 mi South 3.5 mph - N/A   Mostly Cloudy
12:14 PM 66.2 °F 57.2 °F 73% 29.48 in 10.0 mi SSE 4.6 mph - N/A   Mostly Cloudy
12:35 PM 66.2 °F 57.2 °F 73% 29.48 in 10.0 mi Calm Calm - N/A Rain , Thunderstorm Light Thunderstorms and Rain
12:55 PM 66.2 °F 60.8 °F 83% 29.48 in 10.0 mi Calm Calm - N/A Rain Light Rain
1:14 PM 66.2 °F 60.8 °F 83% 29.47 in 10.0 mi Calm Calm - N/A   Overcast
1:35 PM 66.2 °F 60.8 °F 83% 29.46 in 1.0 mi NE 3.5 mph - 0.11 in Rain Heavy Rain
1:54 PM 64.4 °F 60.8 °F 88% 29.44 in 10.0 mi NNE 5.8 mph - 0.11 in Thunderstorm Overcast
2:15 PM 64.4 °F 60.8 °F 88% 29.43 in 10.0 mi East 5.8 mph - N/A Thunderstorm Thunderstorm
2:34 PM 64.4 °F 60.8 °F 88% 29.46 in 10.0 mi NNW 6.9 mph - 0.01 in Rain , Thunderstorm Thunderstorms and Rain
2:54 PM 62.6 °F 60.8 °F 94% 29.49 in 5.0 mi WNW 9.2 mph - 0.08 in Rain , Thunderstorm Heavy Thunderstorms and Rain
3:14 PM 62.6 °F 60.8 °F 94% 29.46 in 7.0 mi North 10.4 mph - 0.17 in Rain Light Rain
3:35 PM 60.8 °F 59.0 °F 94% 29.46 in 10.0 mi NNW 9.2 mph - 0.17 in   Overcast
3:54 PM 62.6 °F 59.0 °F 88% 29.46 in 10.0 mi North 9.2 mph - 0.17 in   Overcast
4:14 PM 62.6 °F 59.0 °F 88% 29.46 in 10.0 mi NNW 9.2 mph - N/A Rain , Thunderstorm Light Thunderstorms and Rain
4:34 PM 60.8 °F 59.0 °F 94% 29.50 in 5.0 mi WNW 15.0 mph - 0.03 in Rain , Thunderstorm Heavy Thunderstorms and Rain
4:54 PM 60.8 °F 59.0 °F 94% 29.48 in 10.0 mi NW 4.6 mph - 0.22 in Rain , Thunderstorm Heavy Thunderstorms and Rain
5:14 PM 60.8 °F 59.0 °F 94% 29.48 in 10.0 mi NW 6.9 mph - 0.01 in Rain Rain
5:34 PM 60.8 °F 60.8 °F 100% 29.47 in 7.0 mi NNW 5.8 mph - 0.01 in Rain , Thunderstorm Light Thunderstorms and Rain
5:54 PM 60.8 °F 60.8 °F 100% 29.51 in 7.0 mi West 10.4 mph - 0.01 in Rain , Thunderstorm Light Thunderstorms and Rain
6:14 PM 62.6 °F 60.8 °F 94% 29.47 in 10.0 mi NW 9.2 mph - 0.08 in Rain Light Rain
6:34 PM 62.6 °F 60.8 °F 94% 29.47 in 10.0 mi NW 6.9 mph - 0.08 in Thunderstorm Overcast
6:54 PM 62.6 °F 60.8 °F 94% 29.47 in 7.0 mi NW 5.8 mph - 0.08 in Thunderstorm Overcast
7:14 PM 64.4 °F 60.8 °F 88% 29.47 in 7.0 mi NNW 6.9 mph - N/A Thunderstorm Overcast
7:34 PM 64.4 °F 60.8 °F 88% 29.48 in 10.0 mi NW 6.9 mph - N/A Thunderstorm Overcast
7:54 PM 64.4 °F 60.8 °F 88% 29.48 in 10.0 mi NW 9.2 mph - N/A   Overcast
8:15 PM 62.6 °F 60.8 °F 94% 29.50 in 10.0 mi NW 6.9 mph - N/A   Overcast
8:35 PM 62.6 °F 57.2 °F 82% 29.51 in 10.0 mi NW 4.6 mph - N/A   Overcast
8:54 PM 62.6 °F 57.2 °F 82% 29.51 in 10.0 mi NNW 5.8 mph - N/A   Overcast
9:14 PM 62.6 °F 57.2 °F 82% 29.50 in 10.0 mi NNE 3.5 mph - N/A   Overcast
9:34 PM 60.8 °F 57.2 °F 88% 29.51 in 10.0 mi Calm Calm - N/A   Mostly Cloudy
9:54 PM 60.8 °F 57.2 °F 88% 29.51 in 10.0 mi Calm Calm - N/A   Mostly Cloudy
10:14 PM 60.8 °F 57.2 °F 88% 29.52 in 10.0 mi Calm Calm - N/A   Scattered Clouds
10:35 PM 60.8 °F 57.2 °F 88% 29.51 in 10.0 mi Calm Calm - N/A   Mostly Cloudy
11:14 PM 60.8 °F 57.2 °F 88% 29.51 in 10.0 mi Calm Calm - N/A   Mostly Cloudy
11:34 PM 59.0 °F 57.2 °F 94% 29.52 in 10.0 mi Calm Calm - N/A   Clear
11:54 PM 57.2 °F 57.2 °F 100% 29.53 in 7.0 mi WSW 4.6 mph - N/A   Clear